User: anonymous
Location: Waning Moon II Observatory
(30.3730°N, 89.7620°W)
Time: 04:59:48
(UTC-05:00)
Language:

Meteor 1-21 - Orbit

View from above orbital plane
View from above orbital plane
View from above satellite
View from above satellite

Ground track
Ground track

The orbit data is extracted from the following two-line orbital elements,

1 07714U 75023A   14106.47628653  .00000253  00000-0  14198-3 0  7825
2 07714 081.2115 238.8052 0028268 275.2773 149.5765 14.07796342322294
Epoch (UTC): 16 April 2014 11:25:51
Eccentricity: 0.0028268
inclination: 81.2115°
perigee height: 846 km
apogee height: 887 km
right ascension of ascending node: 238.8052°
argument of perigee: 275.2773°
revolutions per day: 14.07796342
mean anomaly at epoch: 149.5765°
orbit number at epoch: 32229

The dashed part of the orbit path shows where the satellite is in the earth's shadow,  

DLR